GIA122 WIII-WIEE

Flight info

Callsign GIA122
Flight time 1h 19m
Altitude 36000
Route GUDBA T6 LEBEG
Aircraft B738/M-SDE2E3FGHIRWXY/LB1

Departure

Time 2026-05-08 09:19
Airport Soekarno-Hatta International Airport (WIII)

Arrival

Time 2026-05-08 10:38
Airport Minangkabau International Airport (WIEE)
Time Latitude Longitude Altitude Speed Heading
2026-05-08 08:44 -6.11763 106.66465 37 ft 0 kts 158°
2026-05-08 09:06 -6.11762 106.66465 37 ft 1 kts 158°
2026-05-08 09:06 -6.11747 106.66459 37 ft 6 kts 158°
2026-05-08 09:06 -6.11682 106.66433 35 ft 10 kts 140°
2026-05-08 09:06 -6.11667 106.66411 35 ft 3 kts 89°
2026-05-08 09:07 -6.11668 106.66396 35 ft 0 kts 69°
2026-05-08 09:09 -6.11667 106.66398 37 ft 1 kts 63°
2026-05-08 09:09 -6.11646 106.66408 37 ft 5 kts
2026-05-08 09:09 -6.11591 106.66390 37 ft 12 kts 340°
2026-05-08 09:10 -6.11508 106.66360 37 ft 13 kts 340°
2026-05-08 09:10 -6.11426 106.66326 36 ft 13 kts 335°
2026-05-08 09:10 -6.11362 106.66274 38 ft 12 kts 292°
2026-05-08 09:10 -6.11376 106.66193 38 ft 12 kts 250°
2026-05-08 09:11 -6.11407 106.66117 38 ft 12 kts 248°
2026-05-08 09:11 -6.11436 106.66044 38 ft 11 kts 248°
2026-05-08 09:11 -6.11464 106.65972 37 ft 11 kts 249°
2026-05-08 09:11 -6.11491 106.65900 37 ft 11 kts 249°
2026-05-08 09:12 -6.11516 106.65832 35 ft 10 kts 249°
2026-05-08 09:12 -6.11541 106.65765 35 ft 10 kts 249°
2026-05-08 09:12 -6.11565 106.65700 37 ft 10 kts 249°
2026-05-08 09:12 -6.11590 106.65638 36 ft 10 kts 248°
2026-05-08 09:13 -6.11614 106.65577 35 ft 9 kts 248°
2026-05-08 09:13 -6.11638 106.65518 37 ft 9 kts 248°
2026-05-08 09:13 -6.11662 106.65461 37 ft 9 kts 248°
2026-05-08 09:13 -6.11685 106.65404 36 ft 9 kts 248°
2026-05-08 09:14 -6.11713 106.65335 36 ft 13 kts 248°
2026-05-08 09:14 -6.11751 106.65241 38 ft 16 kts 248°
2026-05-08 09:14 -6.11798 106.65123 38 ft 20 kts 248°
2026-05-08 09:14 -6.11852 106.64986 38 ft 21 kts 249°
2026-05-08 09:15 -6.11905 106.64849 38 ft 21 kts 249°
2026-05-08 09:15 -6.11957 106.64716 38 ft 20 kts 248°
2026-05-08 09:15 -6.12009 106.64587 38 ft 20 kts 248°
2026-05-08 09:15 -6.12059 106.64463 36 ft 19 kts 248°
2026-05-08 09:16 -6.12107 106.64342 38 ft 18 kts 248°
2026-05-08 09:16 -6.12154 106.64226 38 ft 18 kts 248°
2026-05-08 09:16 -6.12198 106.64113 38 ft 17 kts 249°
2026-05-08 09:16 -6.12240 106.64004 38 ft 16 kts 249°
2026-05-08 09:17 -6.12221 106.63903 39 ft 16 kts 322°
2026-05-08 09:17 -6.12143 106.63903 38 ft 11 kts 27°
2026-05-08 09:17 -6.12081 106.63942 40 ft 11 kts 46°
2026-05-08 09:17 -6.12068 106.63964 39 ft 0 kts 65°
2026-05-08 09:18 -6.12038 106.64037 37 ft 47 kts 69°
2026-05-08 09:18 -6.11798 106.64644 39 ft 137 kts 68°
2026-05-08 09:18 -6.11362 106.65732 319 ft 191 kts 68°
2026-05-08 09:19 -6.10796 106.67073 878 ft 223 kts 64°
2026-05-08 09:19 -6.10149 106.68441 1995 ft 211 kts 50°
2026-05-08 09:19 -6.08957 106.69297 2816 ft 219 kts 26°
2026-05-08 09:19 -6.07483 106.70024 3095 ft 253 kts 27°
2026-05-08 09:20 -6.05895 106.70894 3718 ft 270 kts 30°
2026-05-08 09:20 -6.04260 106.71859 4471 ft 275 kts 32°
2026-05-08 09:20 -6.02606 106.72876 5098 ft 281 kts 33°
2026-05-08 09:20 -6.00950 106.73910 6148 ft 280 kts 33°
2026-05-08 09:21 -5.99161 106.74703 7012 ft 287 kts 11°
2026-05-08 09:21 -5.97163 106.74586 7842 ft 294 kts 342°
2026-05-08 09:22 -5.90929 106.63784 12759 ft 317 kts 294°
2026-05-08 09:23 -5.89990 106.61756 13489 ft 323 kts 295°
2026-05-08 09:23 -5.89034 106.59704 14213 ft 326 kts 295°
2026-05-08 09:23 -5.88068 106.57633 14951 ft 329 kts 295°
2026-05-08 09:23 -5.87092 106.55540 15645 ft 333 kts 294°
2026-05-08 09:24 -5.86104 106.53423 16341 ft 337 kts 294°
2026-05-08 09:24 -5.85105 106.51279 17034 ft 341 kts 294°
2026-05-08 09:24 -5.84091 106.49105 17707 ft 346 kts 294°
2026-05-08 09:24 -5.83068 106.46911 18352 ft 349 kts 294°
2026-05-08 09:25 -5.82035 106.44692 18960 ft 352 kts 294°
2026-05-08 09:25 -5.80998 106.42460 19575 ft 354 kts 294°
2026-05-08 09:25 -5.79954 106.40211 20164 ft 357 kts 295°
2026-05-08 09:25 -5.78899 106.37936 20764 ft 361 kts 295°
2026-05-08 09:26 -5.77835 106.35644 21367 ft 363 kts 295°
2026-05-08 09:26 -5.76761 106.33331 21958 ft 367 kts 295°
2026-05-08 09:26 -5.75680 106.31001 22541 ft 370 kts 295°
2026-05-08 09:26 -5.74592 106.28659 23130 ft 372 kts 295°
2026-05-08 09:27 -5.73566 106.26257 23640 ft 376 kts 289°
2026-05-08 09:27 -5.72851 106.23727 24110 ft 378 kts 284°
2026-05-08 09:27 -5.72240 106.21146 24574 ft 382 kts 283°
2026-05-08 09:27 -5.71652 106.18536 25023 ft 385 kts 283°
2026-05-08 09:28 -5.71055 106.15906 25480 ft 388 kts 283°
2026-05-08 09:28 -5.70442 106.13263 25929 ft 391 kts 284°
2026-05-08 09:28 -5.69811 106.10599 26399 ft 393 kts 284°
2026-05-08 09:28 -5.69170 106.07934 26963 ft 392 kts 284°
2026-05-08 09:29 -5.68527 106.05283 27559 ft 390 kts 284°
2026-05-08 09:29 -5.67954 106.02934 28060 ft 389 kts 284°
2026-05-08 09:29 -5.67309 106.00295 28608 ft 389 kts 284°
2026-05-08 09:29 -5.66663 105.97658 29158 ft 389 kts 284°
2026-05-08 09:30 -5.66018 105.95026 29712 ft 388 kts 284°
2026-05-08 09:30 -5.65374 105.92397 30195 ft 388 kts 284°
2026-05-08 09:30 -5.64739 105.89806 30668 ft 386 kts 284°
2026-05-08 09:30 -5.64100 105.87197 31148 ft 384 kts 284°
2026-05-08 09:31 -5.63462 105.84596 31600 ft 384 kts 284°
2026-05-08 09:31 -5.62825 105.81997 32026 ft 383 kts 284°
2026-05-08 09:31 -5.62189 105.79403 32472 ft 382 kts 284°
2026-05-08 09:31 -5.61556 105.76820 32835 ft 383 kts 285°
2026-05-08 09:32 -5.60908 105.74181 32864 ft 395 kts 285°
2026-05-08 09:32 -5.59564 105.68705 33052 ft 413 kts 285°
2026-05-08 09:33 -5.58164 105.62997 33195 ft 430 kts 284°
2026-05-08 09:33 -5.56701 105.57061 33342 ft 446 kts 286°
2026-05-08 09:33 -5.55521 105.54173 33357 ft 451 kts 304°
2026-05-08 09:34 -5.53695 105.51590 33466 ft 456 kts 308°
2026-05-08 09:34 -5.49824 105.46427 33569 ft 469 kts 308°
2026-05-08 09:35 -5.45861 105.41116 33671 ft 481 kts 308°
2026-05-08 09:35 -5.41855 105.35676 33929 ft 486 kts 308°
2026-05-08 09:35 -5.39861 105.32953 34208 ft 484 kts 308°
2026-05-08 09:36 -5.37866 105.30225 34558 ft 481 kts 308°
2026-05-08 09:36 -5.35896 105.27530 34902 ft 478 kts 308°
2026-05-08 09:36 -5.33928 105.24841 35214 ft 477 kts 308°
2026-05-08 09:36 -5.31968 105.22162 35494 ft 476 kts 308°
2026-05-08 09:37 -5.30013 105.19493 35767 ft 475 kts 308°
2026-05-08 09:37 -5.26080 105.14126 35797 ft 478 kts 308°
2026-05-08 09:38 -5.22155 105.08769 35795 ft 474 kts 308°
2026-05-08 09:38 -5.18262 105.03457 35799 ft 471 kts 308°
2026-05-08 09:39 -5.14391 104.98177 35803 ft 470 kts 308°
2026-05-08 09:39 -5.10520 104.92898 35819 ft 469 kts 308°
2026-05-08 09:40 -5.06653 104.87626 35819 ft 470 kts 308°
2026-05-08 09:40 -5.02779 104.82346 35826 ft 471 kts 308°
2026-05-08 09:41 -4.98895 104.77053 35821 ft 472 kts 308°
2026-05-08 09:41 -4.95000 104.71746 35833 ft 473 kts 308°
2026-05-08 09:42 -4.91095 104.66426 35825 ft 474 kts 308°
2026-05-08 09:42 -4.87189 104.61105 35834 ft 474 kts 308°
2026-05-08 09:43 -4.83286 104.55790 35825 ft 473 kts 308°
2026-05-08 09:43 -4.79383 104.50476 35834 ft 473 kts 308°
2026-05-08 09:44 -4.75485 104.45165 35828 ft 473 kts 308°
2026-05-08 09:44 -4.71616 104.39891 35835 ft 472 kts 308°
2026-05-08 09:45 -4.67722 104.34585 35829 ft 472 kts 308°
2026-05-08 09:45 -4.63826 104.29279 35825 ft 472 kts 308°
2026-05-08 09:46 -4.59934 104.23977 35825 ft 472 kts 308°
2026-05-08 09:46 -4.56040 104.18674 35834 ft 472 kts 308°
2026-05-08 09:47 -4.52149 104.13377 35818 ft 472 kts 308°
2026-05-08 09:47 -4.48253 104.08074 35829 ft 472 kts 308°
2026-05-08 09:48 -4.44350 104.02762 35832 ft 472 kts 308°
2026-05-08 09:48 -4.40455 103.97463 35837 ft 473 kts 308°
2026-05-08 09:49 -4.36554 103.92156 35837 ft 473 kts 308°
2026-05-08 09:49 -4.32653 103.86850 35838 ft 473 kts 308°
2026-05-08 09:50 -4.28748 103.81540 35850 ft 474 kts 308°
2026-05-08 09:50 -4.24839 103.76226 35860 ft 474 kts 308°
2026-05-08 09:51 -4.20951 103.70941 35869 ft 475 kts 308°
2026-05-08 09:51 -4.17032 103.65615 35874 ft 475 kts 308°
2026-05-08 09:52 -4.13114 103.60291 35871 ft 475 kts 308°
2026-05-08 09:52 -4.09173 103.54938 35875 ft 475 kts 308°
2026-05-08 09:53 -4.05249 103.49607 35876 ft 476 kts 308°
2026-05-08 09:53 -4.01323 103.44277 35877 ft 476 kts 308°
2026-05-08 09:54 -3.97399 103.38948 35870 ft 475 kts 308°
2026-05-08 09:54 -3.93499 103.33654 35867 ft 475 kts 308°
2026-05-08 09:55 -3.89549 103.28293 35875 ft 475 kts 308°
2026-05-08 09:55 -3.85649 103.23000 35873 ft 476 kts 308°
2026-05-08 09:56 -3.81722 103.17673 35863 ft 475 kts 308°
2026-05-08 09:56 -3.77794 103.12344 35862 ft 476 kts 308°
2026-05-08 09:57 -3.71894 103.04343 35853 ft 476 kts 308°
2026-05-08 09:57 -3.68598 102.99872 35859 ft 476 kts 308°
2026-05-08 09:58 -3.64658 102.94532 35864 ft 477 kts 308°
2026-05-08 09:58 -3.60746 102.89228 35857 ft 477 kts 308°
2026-05-08 09:59 -3.56807 102.83890 35867 ft 476 kts 308°
2026-05-08 09:59 -3.52871 102.78556 35865 ft 476 kts 308°
2026-05-08 10:00 -3.48942 102.73233 35881 ft 476 kts 308°
2026-05-08 10:00 -3.45001 102.67893 35876 ft 476 kts 308°
2026-05-08 10:01 -3.41073 102.62573 35876 ft 475 kts 308°
2026-05-08 10:01 -3.37150 102.57261 35885 ft 474 kts 308°
2026-05-08 10:02 -3.33264 102.51999 35888 ft 473 kts 308°
2026-05-08 10:02 -3.29343 102.46691 35889 ft 472 kts 308°
2026-05-08 10:03 -3.25442 102.41410 35903 ft 472 kts 308°
2026-05-08 10:03 -3.21530 102.36115 35888 ft 473 kts 308°
2026-05-08 10:04 -3.17620 102.30825 35892 ft 473 kts 308°
2026-05-08 10:04 -3.13710 102.25535 35900 ft 473 kts 308°
2026-05-08 10:05 -3.09781 102.20220 35904 ft 475 kts 308°
2026-05-08 10:05 -3.05846 102.14897 35907 ft 476 kts 308°
2026-05-08 10:06 -3.01899 102.09558 35895 ft 478 kts 308°
2026-05-08 10:06 -2.97948 102.04215 35903 ft 478 kts 308°
2026-05-08 10:07 -2.93989 101.98863 35905 ft 479 kts 308°
2026-05-08 10:07 -2.90027 101.93506 35904 ft 479 kts 308°
2026-05-08 10:08 -2.86063 101.88148 35903 ft 479 kts 308°
2026-05-08 10:08 -2.82096 101.82785 35899 ft 479 kts 308°
2026-05-08 10:09 -2.78131 101.77426 35903 ft 479 kts 308°
2026-05-08 10:09 -2.74160 101.72061 35898 ft 480 kts 308°
2026-05-08 10:10 -2.70190 101.66696 35895 ft 480 kts 308°
2026-05-08 10:10 -2.66217 101.61327 35881 ft 480 kts 308°
2026-05-08 10:11 -2.62245 101.55963 35889 ft 480 kts 308°
2026-05-08 10:11 -2.58271 101.50604 35877 ft 480 kts 308°
2026-05-08 10:12 -2.54321 101.45276 35881 ft 480 kts 308°
2026-05-08 10:12 -2.50320 101.39878 35871 ft 480 kts 308°
2026-05-08 10:13 -2.46344 101.34514 35872 ft 480 kts 308°
2026-05-08 10:13 -2.42366 101.29148 35872 ft 480 kts 308°
2026-05-08 10:14 -2.38389 101.23784 35867 ft 480 kts 308°
2026-05-08 10:14 -2.34434 101.18448 35852 ft 470 kts 308°
2026-05-08 10:15 -2.31230 101.14126 35813 ft 460 kts 308°
2026-05-08 10:15 -2.29835 101.12243 35529 ft 455 kts 308°
2026-05-08 10:15 -2.27969 101.09727 35368 ft 443 kts 308°
2026-05-08 10:16 -2.24290 101.04768 35421 ft 448 kts 308°
2026-05-08 10:16 -2.22439 101.02274 35067 ft 445 kts 308°
2026-05-08 10:16 -2.20600 100.99796 34480 ft 445 kts 308°
2026-05-08 10:17 -2.18742 100.97291 33623 ft 453 kts 308°
2026-05-08 10:17 -2.16854 100.94747 32849 ft 457 kts 308°
2026-05-08 10:17 -2.14962 100.92197 32362 ft 454 kts 308°
2026-05-08 10:17 -2.13095 100.89679 32017 ft 448 kts 308°
2026-05-08 10:18 -2.11272 100.87219 31997 ft 434 kts 308°
2026-05-08 10:18 -2.09471 100.84791 31983 ft 440 kts 308°
2026-05-08 10:18 -2.05757 100.79790 31981 ft 455 kts 308°
2026-05-08 10:19 -2.01950 100.74660 31964 ft 461 kts 308°
2026-05-08 10:20 -1.96213 100.66927 31945 ft 461 kts 308°
2026-05-08 10:20 -1.92405 100.61794 31935 ft 459 kts 308°
2026-05-08 10:21 -1.88610 100.56682 31928 ft 456 kts 308°
2026-05-08 10:21 -1.86420 100.54401 31654 ft 454 kts 326°
2026-05-08 10:21 -1.83654 100.52966 31439 ft 446 kts 343°
2026-05-08 10:21 -1.80635 100.52398 31215 ft 441 kts 359°
2026-05-08 10:22 -1.77603 100.52632 31010 ft 436 kts 10°
2026-05-08 10:22 -1.74593 100.52763 30614 ft 431 kts 353°
2026-05-08 10:22 -1.71763 100.51857 29905 ft 430 kts 332°
2026-05-08 10:22 -1.69371 100.50067 28958 ft 431 kts 319°
2026-05-08 10:23 -1.67129 100.48095 28084 ft 427 kts 322°
2026-05-08 10:23 -1.64825 100.46244 27290 ft 422 kts 323°
2026-05-08 10:23 -1.62515 100.44465 26542 ft 417 kts 324°
2026-05-08 10:23 -1.60213 100.42719 25831 ft 412 kts 324°
2026-05-08 10:24 -1.57942 100.40998 25117 ft 408 kts 324°
2026-05-08 10:24 -1.55691 100.39286 24421 ft 404 kts 324°
2026-05-08 10:24 -1.53470 100.37590 23753 ft 400 kts 324°
2026-05-08 10:24 -1.51270 100.35906 23029 ft 397 kts 324°
2026-05-08 10:25 -1.49090 100.34233 22292 ft 392 kts 324°
2026-05-08 10:25 -1.46970 100.32605 21598 ft 387 kts 324°
2026-05-08 10:25 -1.44846 100.30973 20902 ft 383 kts 324°
2026-05-08 10:25 -1.42746 100.29360 20217 ft 379 kts 324°
2026-05-08 10:26 -1.40640 100.27742 19538 ft 375 kts 324°
2026-05-08 10:26 -1.38583 100.26161 18903 ft 371 kts 324°
2026-05-08 10:26 -1.36570 100.24615 18277 ft 368 kts 324°
2026-05-08 10:26 -1.34553 100.23065 17583 ft 364 kts 323°
2026-05-08 10:27 -1.32556 100.21530 16906 ft 360 kts 323°
2026-05-08 10:27 -1.30583 100.20014 16245 ft 356 kts 323°
2026-05-08 10:27 -1.28637 100.18519 15707 ft 349 kts 323°
2026-05-08 10:27 -1.26759 100.17075 15497 ft 332 kts 323°
2026-05-08 10:28 -1.24970 100.15700 15251 ft 319 kts 323°
2026-05-08 10:28 -1.23229 100.14364 14863 ft 313 kts 323°
2026-05-08 10:28 -1.21517 100.13049 14412 ft 309 kts 323°
2026-05-08 10:28 -1.19798 100.11762 13901 ft 308 kts 328°
2026-05-08 10:29 -1.17922 100.10761 13418 ft 304 kts 336°
2026-05-08 10:29 -1.15999 100.09893 12913 ft 302 kts 336°
2026-05-08 10:29 -1.14095 100.09040 12415 ft 299 kts 338°
2026-05-08 10:29 -1.12088 100.08605 11880 ft 295 kts
2026-05-08 10:30 -1.10119 100.09063 11374 ft 291 kts 27°
2026-05-08 10:30 -1.08527 100.10278 10878 ft 288 kts 50°
2026-05-08 10:30 -1.07432 100.11935 10388 ft 286 kts 63°
2026-05-08 10:30 -1.06571 100.13718 9907 ft 284 kts 66°
2026-05-08 10:31 -1.05748 100.15509 9411 ft 283 kts 66°
2026-05-08 10:31 -1.04913 100.17291 8885 ft 282 kts 65°
2026-05-08 10:31 -1.04073 100.19052 8387 ft 282 kts 65°
2026-05-08 10:31 -1.03229 100.20808 7905 ft 281 kts 65°
2026-05-08 10:32 -1.02498 100.22605 7410 ft 280 kts 73°
2026-05-08 10:32 -1.01968 100.24472 6925 ft 279 kts 76°
2026-05-08 10:32 -1.01466 100.26336 6481 ft 277 kts 75°
2026-05-08 10:32 -1.00952 100.28180 6118 ft 272 kts 75°
2026-05-08 10:33 -1.00441 100.29957 5890 ft 261 kts 75°
2026-05-08 10:33 -0.99940 100.31680 5598 ft 256 kts 74°
2026-05-08 10:33 -0.99454 100.33343 5428 ft 244 kts 74°
2026-05-08 10:33 -0.98732 100.34846 5103 ft 240 kts 47°
2026-05-08 10:34 -0.97292 100.35730 4363 ft 252 kts
2026-05-08 10:34 -0.95556 100.35652 3679 ft 253 kts 344°
2026-05-08 10:34 -0.93879 100.35110 3037 ft 252 kts 336°
2026-05-08 10:34 -0.92322 100.34394 2679 ft 241 kts 333°
2026-05-08 10:35 -0.90845 100.33694 2383 ft 229 kts 334°
2026-05-08 10:35 -0.89441 100.33045 2093 ft 217 kts 335°
2026-05-08 10:35 -0.88114 100.32433 1808 ft 202 kts 335°
2026-05-08 10:35 -0.86893 100.31869 1549 ft 185 kts 336°
2026-05-08 10:36 -0.85787 100.31358 1342 ft 164 kts 336°
2026-05-08 10:36 -0.84802 100.30904 1104 ft 150 kts 335°
2026-05-08 10:36 -0.83869 100.30474 920 ft 148 kts 335°
2026-05-08 10:36 -0.82919 100.30029 657 ft 152 kts 335°
2026-05-08 10:37 -0.81972 100.29591 499 ft 147 kts 335°
2026-05-08 10:37 -0.81029 100.29159 365 ft 152 kts 336°
2026-05-08 10:37 -0.80065 100.28710 126 ft 152 kts 336°
2026-05-08 10:37 -0.79125 100.28273 27 ft 145 kts 336°
2026-05-08 10:38 -0.78585 100.28063 25 ft 19 kts 25°
2026-05-08 10:38 -0.78540 100.28141 28 ft 13 kts 72°
2026-05-08 10:38 -0.78534 100.28156 25 ft 0 kts 70°
2026-05-08 10:39 -0.78533 100.28158 25 ft 1 kts 70°
2026-05-08 10:39 -0.78527 100.28175 27 ft 4 kts 67°
2026-05-08 10:39 -0.78508 100.28217 27 ft 8 kts 66°
2026-05-08 10:40 -0.78487 100.28277 29 ft 10 kts 85°
2026-05-08 10:40 -0.78511 100.28340 28 ft 10 kts 134°
2026-05-08 10:40 -0.78574 100.28378 25 ft 11 kts 155°
2026-05-08 10:40 -0.78606 100.28402 25 ft 4 kts 108°
2026-05-08 10:41 -0.78598 100.28434 27 ft 5 kts 66°
2026-05-08 10:41 -0.78588 100.28456 29 ft 2 kts 66°
2026-05-08 10:41 -0.78585 100.28462 28 ft 1 kts 66°